FW3978 Weather Reports


time (UTC)temp
C
wind
direction
speed
KPH
gust
KPH
rain 1hr
cm
rain 24hr
cm
rain mn
cm
humidity
%
barometer
mb
20260506125015 15 156 6.4 17.7 0.00 0.00 0.00 84 1009.9
20260506124515 15 264 1.6 22.5 0.00 0.00 0.00 84 1009.8
20260506124012 15 194 4.8 22.5 0.00 0.00 0.00 84 1009.9
20260506123512 15 149 4.8 22.5 0.00 0.00 0.00 85 1009.9
20260506123014 15 159 6.4 16.1 0.00 0.00 0.00 85 1010.1
20260506122510 15 200 8.0 22.5 0.00 0.00 0.00 86 1010.1
20260506122008 15 155 6.4 22.5 0.00 0.00 0.00 87 1010.1
20260506121505 14 123 3.2 20.9 0.00 0.00 0.00 87 1010.2
20260506121004 14 170 9.7 24.1 0.00 0.00 0.00 87 1010.2
20260506120503 14 184 4.8 25.7 0.00 0.00 0.00 87 1010.3
20260506120111 14 180 12.9 25.7 0.00 0.00 0.00 87 1010.4
20260506115520 13 165 11.3 19.3 0.00 0.00 0.00 88 1010.2
20260506115016 13 140 8.0 22.5 0.00 0.00 0.00 88 1010.4
20260506114518 13 122 6.4 22.5 0.00 0.00 0.00 88 1010.3
20260506114013 13 140 8.0 25.7 0.00 0.00 0.00 88 1010.2
20260506113510 13 185 4.8 20.9 0.00 0.00 0.00 88 1010.2
20260506113009 13 172 6.4 22.5 0.00 0.00 0.00 89 1010.1
20260506112506 13 176 9.7 19.3 0.00 0.00 0.00 89 1010.1
20260506112008 13 134 6.4 19.3 0.00 0.00 0.00 89 1010.0
20260506111505 13 152 6.4 20.9 0.00 0.00 0.00 89 1010.1
20260506111003 13 209 9.7 20.9 0.00 0.00 0.00 89 1010.2
20260506110502 13 190 8.0 27.4 0.00 0.00 0.00 89 1010.2
20260506110059 13 142 6.4 27.4 0.00 0.00 0.00 89 1010.3
20260506105518 13 95 4.8 14.5 0.00 0.00 0.00 89 1010.2
20260506105019 13 198 4.8 19.3 0.00 0.00 0.00 89 1010.2
20260506104514 13 159 9.7 19.3 0.00 0.00 0.00 88 1010.2
20260506104016 13 124 6.4 20.9 0.00 0.00 0.00 88 1010.1
20260506103510 13 173 9.7 20.9 0.00 0.00 0.00 88 1010.2
20260506103008 13 134 9.7 20.9 0.00 0.00 0.00 88 1010.2
20260506102507 13 79 4.8 17.7 0.00 0.00 0.00 88 1010.1
20260506102004 13 142 9.7 16.1 0.00 0.00 0.00 88 1010.1
20260506101502 13 199 9.7 25.7 0.00 0.00 0.00 88 1010.2
20260506101005 13 129 6.4 25.7 0.00 0.00 0.00 88 1010.1
20260506100520 13 178 4.8 17.7 0.00 0.00 0.00 88 1010.1
20260506100015 13 142 4.8 25.7 0.00 0.00 0.00 88 1010.2
20260506095513 13 206 8.0 25.7 0.00 0.00 0.00 88 1010.1
20260506095011 13 178 8.0 22.5 0.00 0.00 0.00 88 1010.2
20260506094509 13 157 9.7 19.3 0.00 0.00 0.00 88 1010.0
20260506094006 13 66 8.0 19.3 0.00 0.00 0.00 87 1010.0
20260506093602 13 153 9.7 22.5 0.00 0.00 0.00 87 1010.0
20260506093059 13 143 8.0 25.7 0.00 0.00 0.00 87 1010.1
20260506092517 13 206 9.7 25.7 0.00 0.00 0.00 87 1010.0
20260506092016 13 160 8.0 22.5 0.00 0.00 0.00 87 1009.9
20260506091517 13 200 8.0 22.5 0.00 0.00 0.00 87 1010.0
20260506091012 13 252 4.8 20.9 0.00 0.00 0.00 87 1010.1
20260506090509 13 177 4.8 20.9 0.00 0.00 0.00 87 1010.2
20260506090018 13 204 6.4 20.9 0.00 0.00 0.00 87 1010.2
20260506085509 13 82 3.2 20.9 0.00 0.00 0.00 87 1010.3
20260506085008 13 198 6.4 22.5 0.00 0.00 0.00 87 1010.3
20260506084520 13 229 6.4 22.5 0.00 0.00 0.00 87 1010.3
20260506084019 13 164 6.4 20.9 0.00 0.00 0.00 87 1010.3
20260506083516 13 169 6.4 20.9 0.00 0.00 0.00 87 1010.3
20260506083013 13 184 6.4 19.3 0.00 0.00 0.00 87 1010.4
20260506082513 13 201 9.7 19.3 0.00 0.00 0.00 86 1010.4
20260506082009 13 162 6.4 22.5 0.00 0.00 0.00 86 1010.5
20260506081509 13 173 6.4 16.1 0.00 0.00 0.00 86 1010.3
20260506081005 13 169 6.4 17.7 0.00 0.00 0.00 86 1010.4
20260506080503 13 191 8.0 20.9 0.00 0.00 0.00 86 1010.3
20260506080111 13 178 8.0 24.1 0.00 0.00 0.00 86 1010.5
20260506073514 13 162 4.8 29.0 0.00 0.00 0.00 85 1010.5
20260506073013 13 161 11.3 30.6 0.00 0.00 0.00 85 1010.5
20260506072512 13 138 9.7 20.9 0.00 0.00 0.00 85 1010.6
20260506072009 13 194 3.2 20.9 0.00 0.00 0.00 85 1010.6
20260506071506 13 80 6.4 24.1 0.00 0.00 0.00 85 1010.8
20260506071004 13 198 9.7 24.1 0.00 0.00 0.00 85 1010.6
20260506070503 13 168 9.7 20.9 0.00 0.00 0.00 85 1010.7
20260506062510 13 169 8.0 22.5 0.00 0.00 0.00 83 1010.6
20260506062008 13 177 3.2 22.5 0.00 0.00 0.00 83 1010.6
20260506061506 13 165 9.7 25.7 0.00 0.00 0.00 83 1010.6
20260506061004 13 220 9.7 25.7 0.00 0.00 0.00 83 1010.6
20260506060600 13 182 4.8 19.3 0.00 0.00 0.00 83 1010.5
20260506051002 14 172 9.7 20.9 0.00 0.00 0.00 80 1010.8
20260506050600 14 161 6.4 20.9 0.00 0.00 0.00 80 1010.8
20260506045014 14 192 9.7 22.5 0.00 0.00 0.00 80 1010.8
20260506044512 15 180 8.0 22.5 0.00 0.00 0.00 79 1010.9
20260506044010 15 155 8.0 20.9 0.00 0.00 0.00 79 1010.9
20260506043510 15 140 9.7 25.7 0.00 0.00 0.00 79 1010.9
20260506043006 15 196 8.0 25.7 0.00 0.00 0.00 79 1010.9
20260506042504 15 215 6.4 24.1 0.00 0.00 0.00 78 1010.8
20260506042003 15 158 9.7 22.5 0.00 0.00 0.00 78 1010.9
20260506041501 15 171 11.3 22.5 0.00 0.00 0.00 78 1011.0
20260506041005 15 161 8.0 20.9 0.00 0.00 0.00 78 1011.0
20260506040522 15 171 4.8 24.1 0.00 0.00 0.00 77 1011.0
20260506040015 15 171 11.3 24.1 0.00 0.00 0.00 77 1010.9
20260506035513 15 90 6.4 29.0 0.00 0.00 0.00 77 1011.1
20260506035013 15 180 4.8 25.7 0.00 0.00 0.00 77 1011.0
20260506034510 16 175 6.4 29.0 0.00 0.00 0.00 76 1011.0
20260506034007 16 125 12.9 29.0 0.00 0.00 0.00 76 1011.0
20260506033506 16 132 9.7 27.4 0.00 0.00 0.00 76 1010.8
20260506033004 16 155 6.4 27.4 0.00 0.00 0.00 76 1010.8
20260506032502 16 116 9.7 19.3 0.00 0.00 0.00 76 1010.9
20260506032100 16 159 6.4 29.0 0.00 0.00 0.00 76 1010.8
20260506031518 16 96 9.7 29.0 0.00 0.00 0.00 76 1010.8
20260506031016 16 190 8.0 22.5 0.00 0.00 0.00 76 1010.9
20260506030515 16 148 8.0 24.1 0.00 0.00 0.00 76 1010.9
20260506030011 16 108 6.4 27.4 0.00 0.00 0.00 76 1010.9
20260506025514 16 161 8.0 27.4 0.00 0.00 0.00 75 1011.0
20260506025033 16 188 3.2 22.5 0.00 0.00 0.00 75 1010.9
20260506024518 16 80 9.7 22.5 0.00 0.00 0.00 75 1010.9
20260506024016 16 146 8.0 22.5 0.00 0.00 0.00 74 1010.9
20260506023510 16 163 6.4 25.7 0.00 0.00 0.00 74 1011.0
20260506023016 16 160 11.3 27.4 0.00 0.00 0.00 74 1010.9
20260506022508 16 158 9.7 25.7 0.00 0.00 0.00 73 1010.9
20260506022004 16 179 3.2 32.2 0.00 0.00 0.00 73 1010.9
20260506021505 16 199 8.0 32.2 0.00 0.00 0.00 73 1010.9
20260506021006 16 178 8.0 27.4 0.00 0.00 0.00 72 1010.9
20260506020503 16 169 9.7 27.4 0.00 0.00 0.00 72 1011.0
20260506020059 16 205 9.7 27.4 0.00 0.00 0.00 72 1011.0
20260506015517 16 238 11.3 32.2 0.00 0.00 0.00 72 1010.9
20260506015015 16 190 9.7 32.2 0.00 0.00 0.00 71 1010.9
20260506014515 16 272 9.7 24.1 0.00 0.00 0.00 71 1010.8
20260506014010 16 144 6.4 24.1 0.00 0.00 0.00 71 1010.7
20260506013512 16 168 9.7 25.7 0.00 0.00 0.00 70 1010.6
20260506013011 17 152 8.0 25.7 0.00 0.00 0.00 70 1010.7
20260506012510 17 177 11.3 37.0 0.00 0.00 0.00 70 1010.6
20260506012013 17 179 11.3 37.0 0.00 0.00 0.00 70 1010.4
20260506011523 17 190 12.9 27.4 0.00 0.00 0.00 69 1010.4
20260506011010 17 119 11.3 24.1 0.00 0.00 0.00 69 1010.3
20260506010504 17 157 9.7 24.1 0.00 0.00 0.00 68 1010.3
20260506010002 17 105 8.0 22.5 0.00 0.00 0.00 68 1010.2
20260506005600 17 167 8.0 22.5 0.00 0.00 0.00 68 1010.2
20260506005020 17 178 11.3 29.0 0.00 0.00 0.00 67 1010.0
20260506004532 18 112 6.4 30.6 0.00 0.00 0.00 67 1010.0
20260506004017 18 68 11.3 30.6 0.00 0.00 0.00 67 1009.9
20260506003512 18 187 9.7 25.7 0.00 0.00 0.00 67 1009.9
20260506003011 18 154 6.4 25.7 0.00 0.00 0.00 67 1009.8
20260506002516 18 181 11.3 29.0 0.00 0.00 0.00 67 1009.9
20260506002010 18 206 8.0 19.3 0.00 0.00 0.00 67 1009.8
20260506001508 18 242 9.7 24.1 0.00 0.00 0.00 67 1009.8
20260506001007 18 213 8.0 25.7 0.00 0.00 0.00 66 1009.7
20260506000505 18 193 11.3 25.7 0.00 0.00 0.00 66 1009.7
20260506000003 18 174 4.8 20.9 0.00 0.00 0.00 66 1009.6
20260505235601 18 155 8.0 29.0 0.00 0.00 0.00 66 1009.5
20260505235018 18 213 8.0 29.0 0.00 0.00 0.00 66 1009.5
20260505234516 18 185 4.8 16.1 0.00 0.00 0.00 66 1009.4
20260505234017 18 182 4.8 20.9 0.00 0.00 0.00 66 1009.3
20260505233512 18 205 8.0 20.9 0.00 0.00 0.00 65 1009.2
20260505233017 18 181 4.8 22.5 0.00 0.00 0.00 65 1009.2
20260505232512 18 136 4.8 27.4 0.00 0.00 0.00 65 1009.2
20260505232008 18 215 9.7 27.4 0.00 0.00 0.00 65 1009.1
20260505231507 18 205 11.3 25.7 0.00 0.00 0.00 64 1009.0
20260505231004 18 159 6.4 20.9 0.00 0.00 0.00 64 1009.1
20260505230503 19 216 9.7 27.4 0.00 0.00 0.00 63 1009.0
20260505230004 19 213 11.3 27.4 0.00 0.00 0.00 62 1008.8
20260505225519 19 156 8.0 24.1 0.00 0.00 0.00 62 1008.9
20260505225018 19 202 9.7 24.1 0.00 0.00 0.00 62 1008.6
20260505224514 20 204 11.3 33.8 0.00 0.00 0.00 61 1008.8
20260505224012 20 173 11.3 33.8 0.00 0.00 0.00 60 1008.9
20260505223510 20 136 12.9 29.0 0.00 0.00 0.00 60 1008.8
20260505223015 20 209 9.7 29.0 0.00 0.00 0.00 60 1008.8
20260505222508 20 90 11.3 27.4 0.00 0.00 0.00 60 1008.7
20260505222007 20 183 8.0 27.4 0.00 0.00 0.00 60 1008.6
20260505221503 20 172 8.0 27.4 0.00 0.00 0.00 60 1008.7
20260505221001 20 177 9.7 32.2 0.00 0.00 0.00 60 1008.6
20260505220504 20 173 14.5 32.2 0.00 0.00 0.00 60 1008.6
20260505220108 20 182 8.0 30.6 0.00 0.00 0.00 60 1008.7
20260505215600 20 222 12.9 37.0 0.00 0.00 0.00 60 1008.6
20260505215017 20 186 11.3 30.6 0.00 0.00 0.00 60 1008.7
20260505214525 20 170 12.9 30.6 0.00 0.00 0.00 60 1008.5
20260505214014 20 217 9.7 32.2 0.00 0.00 0.00 61 1008.6
20260505213511 20 225 12.9 30.6 0.00 0.00 0.00 62 1008.6
20260505213018 20 167 8.0 32.2 0.00 0.00 0.00 62 1008.7
20260505212507 20 178 11.3 32.2 0.00 0.00 0.00 61 1008.6
20260505212006 20 221 8.0 38.6 0.00 0.00 0.00 62 1008.4
20260505211503 20 298 11.3 38.6 0.00 0.00 0.00 62 1008.4
20260505211100 20 176 12.9 40.2 0.00 0.00 0.00 62 1008.4
20260505210518 20 205 16.1 38.6 0.00 0.00 0.00 61 1008.4
20260505210056 20 175 12.9 35.4 0.00 0.00 0.00 62 1008.4
20260505205522 20 234 9.7 35.4 0.00 0.00 0.00 61 1008.5
20260505205016 20 236 14.5 35.4 0.00 0.00 0.00 60 1008.6
20260505204516 21 199 14.5 29.0 0.00 0.00 0.00 60 1008.5
20260505204012 21 187 14.5 29.0 0.00 0.00 0.00 59 1008.5
20260505203511 21 180 6.4 29.0 0.00 0.00 0.00 61 1008.6
20260505203011 21 178 8.0 22.5 0.00 0.00 0.00 61 1008.5
20260505202508 21 197 8.0 24.1 0.00 0.00 0.00 61 1008.6
20260505202004 21 136 9.7 32.2 0.00 0.00 0.00 60 1008.7
20260505201502 21 191 14.5 32.2 0.00 0.00 0.00 60 1008.6
20260505201001 21 120 11.3 24.1 0.00 0.00 0.00 59 1008.7
20260505200501 21 240 14.5 24.1 0.00 0.00 0.00 59 1008.7
20260505200018 22 161 11.3 20.9 0.00 0.00 0.00 59 1008.8
20260505195521 22 173 11.3 25.7 0.00 0.00 0.00 59 1008.9
20260505195014 22 202 9.7 25.7 0.00 0.00 0.00 60 1008.7
20260505194519 22 229 11.3 24.1 0.00 0.00 0.00 58 1008.8
20260505194020 22 176 4.8 22.5 0.00 0.00 0.00 61 1009.0
20260505193512 22 192 9.7 33.8 0.00 0.00 0.00 59 1009.0
20260505193010 22 259 12.9 33.8 0.00 0.00 0.00 59 1008.9
20260505192508 22 203 6.4 25.7 0.00 0.00 0.00 60 1009.0
20260505192006 22 119 8.0 19.3 0.00 0.00 0.00 61 1009.3
20260505191600 22 175 6.4 20.9 0.00 0.00 0.00 61 1009.3
20260505191017 22 191 9.7 20.9 0.00 0.00 0.00 61 1009.4
20260505190519 22 211 6.4 29.0 0.00 0.00 0.00 61 1009.5
20260505190015 22 105 9.7 29.0 0.00 0.00 0.00 60 1009.6
20260505185513 22 117 9.7 27.4 0.00 0.00 0.00 60 1009.8
20260505185012 22 175 9.7 27.4 0.00 0.00 0.00 60 1009.8
20260505184508 22 139 8.0 27.4 0.00 0.00 0.00 61 1009.7
20260505184007 21 172 11.3 29.0 0.00 0.00 0.00 62 1009.7
20260505183506 21 187 11.3 27.4 0.00 0.00 0.00 60 1009.8
20260505183007 21 161 11.3 25.7 0.00 0.00 0.00 61 1009.9
20260505182505 21 172 12.9 24.1 0.00 0.00 0.00 61 1009.9
20260505182003 21 188 4.8 17.7 0.00 0.00 0.00 62 1009.8
20260505181502 22 136 4.8 17.7 0.00 0.00 0.00 61 1009.8
20260505181100 22 117 4.8 17.7 0.00 0.00 0.00 61 1009.8
20260505180517 21 109 4.8 16.1 0.00 0.00 0.00 64 1009.9
20260505180016 22 207 9.7 16.1 0.00 0.00 0.00 62 1009.8
20260505175514 21 168 6.4 24.1 0.00 0.00 0.00 62 1009.9
20260505175007 21 171 9.7 24.1 0.00 0.00 0.00 63 1010.0
20260505174506 21 164 4.8 17.7 0.00 0.00 0.00 62 1010.1
20260505174003 22 65 8.0 20.9 0.00 0.00 0.00 61 1010.1
20260505173503 22 123 9.7 17.7 0.00 0.00 0.00 61 1010.1
20260505173059 22 115 6.4 25.7 0.00 0.00 0.00 61 1010.2
20260505172600 22 165 9.7 25.7 0.00 0.00 0.00 59 1010.1
20260505172059 22 191 4.8 19.3 0.00 0.00 0.00 62 1010.2
20260505171517 22 168 6.4 24.1 0.00 0.00 0.00 60 1010.2
20260505171018 22 140 6.4 24.1 0.00 0.00 0.00 59 1010.1
20260505170514 22 194 4.8 16.1 0.00 0.00 0.00 59 1010.2
20260505170015 22 140 3.2 19.3 0.00 0.00 0.00 59 1010.4
20260505165509 22 212 9.7 19.3 0.00 0.00 0.00 58 1010.3
20260505165008 22 192 6.4 16.1 0.00 0.00 0.00 57 1010.3
20260505164507 22 190 4.8 16.1 0.00 0.00 0.00 57 1010.3
20260505164004 22 156 6.4 17.7 0.00 0.00 0.00 60 1010.5
20260505163503 22 194 8.0 17.7 0.00 0.00 0.00 59 1010.5
20260505163100 22 101 9.7 17.7 0.00 0.00 0.00 58 1010.6
20260505162517 22 182 4.8 19.3 0.00 0.00 0.00 59 1010.6
20260505162017 22 211 6.4 19.3 0.00 0.00 0.00 58 1010.6
20260505161515 22 77 4.8 17.7 0.00 0.00 0.00 58 1010.6
20260505161012 22 226 9.7 19.3 0.00 0.00 0.00 58 1010.6
20260505160515 22 197 8.0 19.3 0.00 0.00 0.00 58 1010.6
20260505153117 21 189 3.2 19.3 0.00 0.00 0.00 61 1010.7
20260505152519 21 198 9.7 19.3 0.00 0.00 0.00 60 1010.9
20260505152016 21 205 8.0 24.1 0.00 0.00 0.00 60 1011.0
20260505151514 21 193 8.0 22.5 0.00 0.00 0.00 60 1011.1
20260505151012 21 258 6.4 22.5 0.00 0.00 0.00 61 1011.2
20260505150513 21 209 11.3 20.9 0.00 0.00 0.00 62 1011.2
20260505140511 18 224 9.7 19.3 0.00 0.00 0.00 65 1011.0